Regional Weather Roundup
Issued by NWS

Home | Current Version | Previous Version | Text Only | Print | Product List | Glossary Off
Versions: 1 2 3 4 5 6 7 8 9 10 11 12 13 14 15 16 17 18 19 20 21 22 23 24 25 26 27 28 29 30 31 32 33 34 35 36 37 38 39 40 41 42 43 44 45 46 47 48 49 50

000
ASUS43 KFSD 231502
RWRSD

WEATHER ROUNDUP FOR SOUTH DAKOTA
NATIONAL WEATHER SERVICE SIOUX FALLS SD
1000 AM CDT TUE MAY 23 2017

NOTE: "FAIR" INDICATES FEW OR NO CLOUDS BELOW 12,000 FEET WITH NO
SIGNIFICANT WEATHER AND/OR OBSTRUCTIONS TO VISIBILITY.


SDZ001>005-009-010-012>017-231600-
NORTHWEST AND NORTH CENTRAL SOUTH DAKOTA

CITY           SKY/WX    TMP DP  RH WIND       PRES   REMARKS
BUFFALO          N/A     55  36  48 VRB6      30.10S
FAITH            N/A     55  37  50 N21G31    30.10S
MOBRIDGE       CLOUDY    53  37  54 N18G29    30.02S
$$

SDZ012>016-024>037-041>051-057-063-072>074-231600-
SOUTHWEST AND SOUTH CENTRAL SOUTH DAKOTA

CITY           SKY/WX    TMP DP  RH WIND       PRES   REMARKS
RAPID CTY ARPT SUNNY     53  36  52 N16       30.15S
PIERRE         LGT RAIN  53  39  59 N24G36    30.03R
CUSTER         MOSUNNY   46  32  58 NW10G21   30.16F
ELLSWORTH AFB  SUNNY     53  35  50 N16       30.15S
PHILIP         CLOUDY    56  39  53 N24       30.09S
PINE RIDGE     MOSUNNY   52  41  66 N14       30.14S
SPEARFISH      FAIR      50  36  57 NW9       30.19S
WINNER         CLOUDY    51  41  68 N15       30.02S
$$

SDZ004>011-016>023-039-040-231600-
NORTHEAST SOUTH DAKOTA

CITY           SKY/WX    TMP DP  RH WIND       PRES   REMARKS
ABERDEEN       CLOUDY    49  42  77 N21G26    29.99R
WATERTOWN      CLOUDY    47  44  90 N15       29.91S
BROOKINGS      LGT RAIN  47  44  90 N18       29.90S
SISSETON         N/A     49  47  93 N18       29.92S
$$

SDZ017-020-022-023-036>040-048>070-231600-
SOUTHEAST SOUTH DAKOTA

CITY           SKY/WX    TMP DP  RH WIND       PRES   REMARKS
SIOUX FALLS    LGT RAIN  50  47  89 NW15      29.90S
HURON          CLOUDY    50  45  83 N20G25    29.95S
CHAMBERLAIN    CLOUDY    53  43  68 N16G22    29.99S
MITCHELL       CLOUDY    50  45  83 N20       29.96R
YANKTON        CLOUDY    50  45  83 NW14G21   29.93S
$$

ABBREVIATIONS USED IN REMARKS
   TC - TEMPERATURE IN CELSIUS
  WCI - WIND CHILL INDEX
   HX - HEAT INDEX
  VSB - VISIBILITY




USA.gov is the U.S. government's official web portal to all federal, state and local government web resources and services.